Time,TemperatureF,DewpointF,PressureIn,WindDirection,WindDirectionDegrees,WindSpeedMPH,WindSpeedGustMPH,Humidity,HourlyPrecipIn,Conditions,Clouds,dailyrainin,SoftwareType,DateUTC
2013-01-08 00:00:00,24.1,20.8,30.28,SSW,202,0.0,2.0,87,0.00,,,-99.99,WeatherLink 5.7,2013-01-08 05:00:00,
2013-01-08 00:05:00,23.8,20.5,30.28,North,-999,0.0,0.0,87,0.00,,,-99.99,WeatherLink 5.7,2013-01-08 05:05:00,
2013-01-08 00:10:00,23.6,20.3,30.28,North,-999,0.0,0.0,87,0.00,,,-99.99,WeatherLink 5.7,2013-01-08 05:10:00,
2013-01-08 00:15:00,23.3,20.0,30.28,North,-999,0.0,0.0,87,0.00,,,-99.99,WeatherLink 5.7,2013-01-08 05:15:00,
2013-01-08 00:20:00,23.0,19.4,30.28,North,-999,0.0,0.0,86,0.00,,,-99.99,WeatherLink 5.7,2013-01-08 05:20:00,
2013-01-08 00:25:00,22.7,19.1,30.28,North,-999,0.0,0.0,86,0.00,,,-99.99,WeatherLink 5.7,2013-01-08 05:25:00,
2013-01-08 00:30:00,22.5,19.2,30.29,North,-999,0.0,0.0,87,0.00,,,-99.99,WeatherLink 5.7,2013-01-08 05:30:00,
2013-01-08 00:35:00,22.4,19.1,30.29,North,-999,0.0,0.0,87,0.00,,,-99.99,WeatherLink 5.7,2013-01-08 05:35:00,
2013-01-08 00:40:00,22.2,18.9,30.29,North,-999,0.0,0.0,87,0.00,,,-99.99,WeatherLink 5.7,2013-01-08 05:40:00,
2013-01-08 00:45:00,22.2,19.2,30.28,North,-999,0.0,0.0,88,0.00,,,-99.99,WeatherLink 5.7,2013-01-08 05:45:00,
2013-01-08 00:50:00,22.4,19.6,30.28,SSW,202,0.0,3.0,89,0.00,,,-99.99,WeatherLink 5.7,2013-01-08 05:50:00,
2013-01-08 00:55:00,22.4,19.4,30.28,North,-999,0.0,0.0,88,0.00,,,-99.99,WeatherLink 5.7,2013-01-08 05:55:00,
2013-01-08 01:00:00,22.5,19.5,30.27,North,-999,0.0,0.0,88,0.00,,,-99.99,WeatherLink 5.7,2013-01-08 06:00:00,
2013-01-08 01:05:00,22.5,19.5,30.27,SSW,202,0.0,2.0,88,0.00,,,-99.99,WeatherLink 5.7,2013-01-08 06:05:00,
2013-01-08 01:10:00,22.5,19.5,30.27,SSW,202,0.0,1.0,88,0.00,,,-99.99,WeatherLink 5.7,2013-01-08 06:10:00,
2013-01-08 01:15:00,22.5,19.5,30.27,SSW,202,0.0,2.0,88,0.00,,,-99.99,WeatherLink 5.7,2013-01-08 06:15:00,
2013-01-08 01:20:00,22.5,19.5,30.27,SSW,202,0.0,1.0,88,0.00,,,-99.99,WeatherLink 5.7,2013-01-08 06:20:00,
2013-01-08 01:25:00,22.4,19.4,30.27,SSW,202,0.0,2.0,88,0.00,,,-99.99,WeatherLink 5.7,2013-01-08 06:25:00,
2013-01-08 01:30:00,22.4,19.4,30.27,North,-999,0.0,0.0,88,0.00,,,-99.99,WeatherLink 5.7,2013-01-08 06:30:00,
2013-01-08 01:35:00,22.2,19.2,30.27,North,-999,0.0,0.0,88,0.00,,,-99.99,WeatherLink 5.7,2013-01-08 06:35:00,
2013-01-08 01:40:00,22.1,18.8,30.27,North,-999,0.0,0.0,87,0.00,,,-99.99,WeatherLink 5.7,2013-01-08 06:40:00,
2013-01-08 01:45:00,21.8,18.8,30.27,North,-999,0.0,0.0,88,0.00,,,-99.99,WeatherLink 5.7,2013-01-08 06:45:00,
2013-01-08 01:50:00,21.6,18.6,30.27,SSW,202,0.0,2.0,88,0.00,,,-99.99,WeatherLink 5.7,2013-01-08 06:50:00,
2013-01-08 01:55:00,21.6,18.6,30.27,SSW,202,0.0,2.0,88,0.00,,,-99.99,WeatherLink 5.7,2013-01-08 06:55:00,
2013-01-08 02:00:00,21.6,18.6,30.27,North,-999,0.0,0.0,88,0.00,,,-99.99,WeatherLink 5.7,2013-01-08 07:00:00,
2013-01-08 02:05:00,21.6,18.6,30.27,North,-999,0.0,0.0,88,0.00,,,-99.99,WeatherLink 5.7,2013-01-08 07:05:00,
2013-01-08 02:10:00,21.6,18.6,30.27,North,-999,0.0,0.0,88,0.00,,,-99.99,WeatherLink 5.7,2013-01-08 07:10:00,
2013-01-08 02:15:00,21.6,18.6,30.27,North,-999,0.0,0.0,88,0.00,,,-99.99,WeatherLink 5.7,2013-01-08 07:15:00,
2013-01-08 02:20:00,21.6,18.6,30.27,SSW,202,0.0,2.0,88,0.00,,,-99.99,WeatherLink 5.7,2013-01-08 07:20:00,
2013-01-08 02:25:00,21.6,18.6,30.27,SSW,202,0.0,1.0,88,0.00,,,-99.99,WeatherLink 5.7,2013-01-08 07:25:00,
2013-01-08 02:30:00,21.6,18.6,30.27,SSW,202,0.0,2.0,88,0.00,,,-99.99,WeatherLink 5.7,2013-01-08 07:30:00,
2013-01-08 02:35:00,21.6,18.6,30.27,SSW,202,0.0,1.0,88,0.00,,,-99.99,WeatherLink 5.7,2013-01-08 07:35:00,
2013-01-08 02:40:00,21.4,18.1,30.27,SSW,202,0.0,1.0,87,0.00,,,-99.99,WeatherLink 5.7,2013-01-08 07:40:00,
2013-01-08 02:45:00,21.3,18.0,30.27,SSW,202,0.0,2.0,87,0.00,,,-99.99,WeatherLink 5.7,2013-01-08 07:45:00,
2013-01-08 02:50:00,21.1,17.8,30.27,SSW,202,0.0,1.0,87,0.00,,,-99.99,WeatherLink 5.7,2013-01-08 07:50:00,
2013-01-08 02:55:00,21.1,17.8,30.27,SSW,202,0.0,2.0,87,0.00,,,-99.99,WeatherLink 5.7,2013-01-08 07:55:00,
2013-01-08 03:00:00,21.0,17.5,30.26,SSW,202,0.0,2.0,86,0.00,,,-99.99,WeatherLink 5.7,2013-01-08 08:00:00,
2013-01-08 03:05:00,21.0,17.5,30.26,North,-999,0.0,0.0,86,0.00,,,-99.99,WeatherLink 5.7,2013-01-08 08:05:00,
2013-01-08 03:10:00,21.0,17.2,30.26,North,-999,0.0,0.0,85,0.00,,,-99.99,WeatherLink 5.7,2013-01-08 08:10:00,
2013-01-08 03:15:00,21.0,17.2,30.25,SSW,202,0.0,2.0,85,0.00,,,-99.99,WeatherLink 5.7,2013-01-08 08:15:00,
2013-01-08 03:20:00,21.0,16.9,30.25,SSW,202,0.0,1.0,84,0.00,,,-99.99,WeatherLink 5.7,2013-01-08 08:20:00,
2013-01-08 03:25:00,20.8,16.7,30.25,SSW,202,0.0,2.0,84,0.00,,,-99.99,WeatherLink 5.7,2013-01-08 08:25:00,
2013-01-08 03:30:00,20.8,16.7,30.25,SSW,202,0.0,2.0,84,0.00,,,-99.99,WeatherLink 5.7,2013-01-08 08:30:00,
2013-01-08 03:35:00,20.8,16.5,30.25,SSW,202,0.0,2.0,83,0.00,,,-99.99,WeatherLink 5.7,2013-01-08 08:35:00,
2013-01-08 03:40:00,21.0,16.6,30.25,SSW,202,1.0,2.0,83,0.00,,,-99.99,WeatherLink 5.7,2013-01-08 08:40:00,
2013-01-08 03:45:00,21.1,16.5,30.24,SSW,202,0.0,2.0,82,0.00,,,-99.99,WeatherLink 5.7,2013-01-08 08:45:00,
2013-01-08 03:50:00,21.3,16.4,30.24,SSW,202,1.0,3.0,81,0.00,,,-99.99,WeatherLink 5.7,2013-01-08 08:50:00,
2013-01-08 03:55:00,21.4,16.5,30.24,SSW,202,0.0,2.0,81,0.00,,,-99.99,WeatherLink 5.7,2013-01-08 08:55:00,
2013-01-08 04:00:00,21.4,16.2,30.24,SSW,202,1.0,3.0,80,0.00,,,-99.99,WeatherLink 5.7,2013-01-08 09:00:00,
2013-01-08 04:05:00,21.4,16.2,30.24,SSW,202,1.0,6.0,80,0.00,,,-99.99,WeatherLink 5.7,2013-01-08 09:05:00,
2013-01-08 04:10:00,21.6,16.1,30.24,SSW,202,0.0,3.0,79,0.00,,,-99.99,WeatherLink 5.7,2013-01-08 09:10:00,
2013-01-08 04:15:00,21.6,16.1,30.23,SSW,202,0.0,2.0,79,0.00,,,-99.99,WeatherLink 5.7,2013-01-08 09:15:00,
2013-01-08 04:20:00,21.6,16.1,30.23,SSW,202,0.0,2.0,79,0.00,,,-99.99,WeatherLink 5.7,2013-01-08 09:20:00,
2013-01-08 04:25:00,21.6,16.1,30.23,SSW,202,0.0,2.0,79,0.00,,,-99.99,WeatherLink 5.7,2013-01-08 09:25:00,
2013-01-08 04:30:00,21.4,15.9,30.23,North,-999,0.0,0.0,79,0.00,,,-99.99,WeatherLink 5.7,2013-01-08 09:30:00,
2013-01-08 04:35:00,21.3,16.1,30.23,North,-999,0.0,0.0,80,0.00,,,-99.99,WeatherLink 5.7,2013-01-08 09:35:00,
2013-01-08 04:40:00,21.3,16.1,30.23,North,-999,0.0,0.0,80,0.00,,,-99.99,WeatherLink 5.7,2013-01-08 09:40:00,
2013-01-08 04:45:00,21.3,16.1,30.23,North,-999,0.0,0.0,80,0.00,,,-99.99,WeatherLink 5.7,2013-01-08 09:45:00,
2013-01-08 04:50:00,21.1,15.9,30.23,North,-999,0.0,0.0,80,0.00,,,-99.99,WeatherLink 5.7,2013-01-08 09:50:00,
2013-01-08 04:55:00,21.1,16.2,30.23,North,-999,0.0,0.0,81,0.00,,,-99.99,WeatherLink 5.7,2013-01-08 09:55:00,
2013-01-08 05:00:00,21.0,16.1,30.23,North,-999,0.0,0.0,81,0.00,,,-99.99,WeatherLink 5.7,2013-01-08 10:00:00,
2013-01-08 05:05:00,21.0,16.4,30.23,North,-999,0.0,0.0,82,0.00,,,-99.99,WeatherLink 5.7,2013-01-08 10:05:00,
2013-01-08 05:10:00,20.8,16.2,30.23,North,-999,0.0,0.0,82,0.00,,,-99.99,WeatherLink 5.7,2013-01-08 10:10:00,
2013-01-08 05:15:00,20.8,16.2,30.23,SSW,202,0.0,1.0,82,0.00,,,-99.99,WeatherLink 5.7,2013-01-08 10:15:00,
2013-01-08 05:20:00,20.8,16.5,30.23,SSW,202,0.0,2.0,83,0.00,,,-99.99,WeatherLink 5.7,2013-01-08 10:20:00,
2013-01-08 05:25:00,21.0,16.6,30.23,SSW,202,0.0,1.0,83,0.00,,,-99.99,WeatherLink 5.7,2013-01-08 10:25:00,
2013-01-08 05:30:00,21.0,16.6,30.22,SSW,202,0.0,1.0,83,0.00,,,-99.99,WeatherLink 5.7,2013-01-08 10:30:00,
2013-01-08 05:35:00,21.3,17.2,30.22,SSW,202,0.0,3.0,84,0.00,,,-99.99,WeatherLink 5.7,2013-01-08 10:35:00,
2013-01-08 05:40:00,21.4,17.6,30.22,South,180,0.0,2.0,85,0.00,,,-99.99,WeatherLink 5.7,2013-01-08 10:40:00,
2013-01-08 05:45:00,21.9,18.1,30.22,SSW,202,2.0,5.0,85,0.00,,,-99.99,WeatherLink 5.7,2013-01-08 10:45:00,
2013-01-08 05:50:00,22.5,18.9,30.22,SSW,202,1.0,3.0,86,0.00,,,-99.99,WeatherLink 5.7,2013-01-08 10:50:00,
2013-01-08 05:55:00,22.9,19.1,30.22,SSW,202,0.0,2.0,85,0.00,,,-99.99,WeatherLink 5.7,2013-01-08 10:55:00,
2013-01-08 06:00:00,23.0,18.9,30.22,SSW,202,0.0,1.0,84,0.00,,,-99.99,WeatherLink 5.7,2013-01-08 11:00:00,
2013-01-08 06:05:00,23.0,19.2,30.22,North,-999,0.0,0.0,85,0.00,,,-99.99,WeatherLink 5.7,2013-01-08 11:05:00,
2013-01-08 06:10:00,23.2,19.4,30.22,North,-999,0.0,0.0,85,0.00,,,-99.99,WeatherLink 5.7,2013-01-08 11:10:00,
2013-01-08 06:15:00,23.3,19.7,30.22,SSW,202,1.0,3.0,86,0.00,,,-99.99,WeatherLink 5.7,2013-01-08 11:15:00,
2013-01-08 06:20:00,23.8,20.2,30.22,South,180,1.0,3.0,86,0.00,,,-99.99,WeatherLink 5.7,2013-01-08 11:20:00,
2013-01-08 06:25:00,23.9,20.0,30.22,South,180,0.0,1.0,85,0.00,,,-99.99,WeatherLink 5.7,2013-01-08 11:25:00,
2013-01-08 06:30:00,24.1,20.2,30.23,North,-999,0.0,0.0,85,0.00,,,-99.99,WeatherLink 5.7,2013-01-08 11:30:00,
2013-01-08 06:35:00,24.2,20.3,30.23,South,180,0.0,1.0,85,0.00,,,-99.99,WeatherLink 5.7,2013-01-08 11:35:00,
2013-01-08 06:40:00,24.2,20.6,30.23,North,-999,0.0,0.0,86,0.00,,,-99.99,WeatherLink 5.7,2013-01-08 11:40:00,
2013-01-08 06:45:00,24.2,20.6,30.23,North,-999,0.0,0.0,86,0.00,,,-99.99,WeatherLink 5.7,2013-01-08 11:45:00,
2013-01-08 06:50:00,24.2,20.6,30.23,South,180,0.0,1.0,86,0.00,,,-99.99,WeatherLink 5.7,2013-01-08 11:50:00,
2013-01-08 06:55:00,24.4,20.8,30.23,South,180,0.0,2.0,86,0.00,,,-99.99,WeatherLink 5.7,2013-01-08 11:55:00,
2013-01-08 07:00:00,24.4,20.8,30.24,North,-999,0.0,0.0,86,0.00,,,-99.99,WeatherLink 5.7,2013-01-08 12:00:00,
2013-01-08 07:05:00,24.4,21.1,30.24,North,-999,0.0,0.0,87,0.00,,,-99.99,WeatherLink 5.7,2013-01-08 12:05:00,
2013-01-08 07:10:00,24.7,21.4,30.24,North,-999,0.0,0.0,87,0.00,,,-99.99,WeatherLink 5.7,2013-01-08 12:10:00,
2013-01-08 07:15:00,25.1,22.0,30.24,South,180,1.0,4.0,88,0.00,,,-99.99,WeatherLink 5.7,2013-01-08 12:15:00,
2013-01-08 07:20:00,25.6,22.3,30.24,SSW,202,1.0,4.0,87,0.00,,,-99.99,WeatherLink 5.7,2013-01-08 12:20:00,
2013-01-08 07:25:00,25.8,22.5,30.24,SSW,202,0.0,2.0,87,0.00,,,-99.99,WeatherLink 5.7,2013-01-08 12:25:00,
2013-01-08 07:30:00,26.1,22.5,30.24,SSW,202,1.0,5.0,86,0.00,,,-99.99,WeatherLink 5.7,2013-01-08 12:30:00,
2013-01-08 07:35:00,26.4,22.8,30.24,SSW,202,2.0,7.0,86,0.00,,,-99.99,WeatherLink 5.7,2013-01-08 12:35:00,
2013-01-08 07:40:00,26.7,22.8,30.24,SSW,202,0.0,3.0,85,0.00,,,-99.99,WeatherLink 5.7,2013-01-08 12:40:00,
2013-01-08 07:45:00,27.2,23.3,30.25,SSW,202,0.0,3.0,85,0.00,,,-99.99,WeatherLink 5.7,2013-01-08 12:45:00,
2013-01-08 07:50:00,27.5,23.6,30.25,SSW,202,0.0,2.0,85,0.00,,,-99.99,WeatherLink 5.7,2013-01-08 12:50:00,
2013-01-08 07:55:00,28.1,23.9,30.25,SW,225,0.0,3.0,84,0.00,,,-99.99,WeatherLink 5.7,2013-01-08 12:55:00,
2013-01-08 08:00:00,28.7,24.2,30.25,SSW,202,1.0,6.0,83,0.00,,,-99.99,WeatherLink 5.7,2013-01-08 13:00:00,
2013-01-08 08:05:00,29.3,24.5,30.25,South,180,2.0,6.0,82,0.00,,,-99.99,WeatherLink 5.7,2013-01-08 13:05:00,
2013-01-08 08:10:00,29.8,24.7,30.25,South,180,0.0,1.0,81,0.00,,,-99.99,WeatherLink 5.7,2013-01-08 13:10:00,
2013-01-08 08:15:00,30.6,24.9,30.26,WNW,292,1.0,7.0,79,0.00,,,-99.99,WeatherLink 5.7,2013-01-08 13:15:00,
2013-01-08 08:20:00,31.0,24.9,30.26,WSW,247,0.0,4.0,78,0.00,,,-99.99,WeatherLink 5.7,2013-01-08 13:20:00,
2013-01-08 08:25:00,31.5,25.1,30.26,WSW,247,0.0,1.0,77,0.00,,,-99.99,WeatherLink 5.7,2013-01-08 13:25:00,
2013-01-08 08:30:00,31.9,25.2,30.27,SSE,157,0.0,2.0,76,0.00,,,-99.99,WeatherLink 5.7,2013-01-08 13:30:00,
2013-01-08 08:35:00,32.5,25.8,30.27,SW,225,0.0,5.0,76,0.00,,,-99.99,WeatherLink 5.7,2013-01-08 13:35:00,
2013-01-08 08:40:00,33.2,25.8,30.27,North,-999,0.0,0.0,74,0.00,,,-99.99,WeatherLink 5.7,2013-01-08 13:40:00,
2013-01-08 08:45:00,34.3,26.2,30.27,SSW,202,0.0,2.0,72,0.00,,,-99.99,WeatherLink 5.7,2013-01-08 13:45:00,
2013-01-08 08:50:00,35.3,26.1,30.27,South,180,1.0,5.0,69,0.00,,,-99.99,WeatherLink 5.7,2013-01-08 13:50:00,
2013-01-08 08:55:00,36.2,26.6,30.27,South,180,2.0,5.0,68,0.00,,,-99.99,WeatherLink 5.7,2013-01-08 13:55:00,
2013-01-08 09:00:00,36.9,26.6,30.26,South,180,1.0,5.0,66,0.00,,,-99.99,WeatherLink 5.7,2013-01-08 14:00:00,
2013-01-08 09:05:00,37.6,26.5,30.26,SW,225,0.0,3.0,64,0.00,,,-99.99,WeatherLink 5.7,2013-01-08 14:05:00,
2013-01-08 09:10:00,38.2,26.3,30.26,SSW,202,1.0,3.0,62,0.00,,,-99.99,WeatherLink 5.7,2013-01-08 14:10:00,
2013-01-08 09:15:00,38.9,27.4,30.26,SSW,202,1.0,3.0,63,0.00,,,-99.99,WeatherLink 5.7,2013-01-08 14:15:00,
2013-01-08 09:20:00,39.8,27.4,30.26,SSW,202,0.0,2.0,61,0.00,,,-99.99,WeatherLink 5.7,2013-01-08 14:20:00,
2013-01-08 09:25:00,40.8,27.6,30.26,WSW,247,0.0,2.0,59,0.00,,,-99.99,WeatherLink 5.7,2013-01-08 14:25:00,
2013-01-08 09:30:00,41.3,27.2,30.26,WSW,247,1.0,4.0,57,0.00,,,-99.99,WeatherLink 5.7,2013-01-08 14:30:00,
2013-01-08 09:35:00,41.6,27.1,30.26,West,270,1.0,3.0,56,0.00,,,-99.99,WeatherLink 5.7,2013-01-08 14:35:00,
2013-01-08 09:40:00,42.1,27.1,30.26,West,270,1.0,6.0,55,0.00,,,-99.99,WeatherLink 5.7,2013-01-08 14:40:00,
2013-01-08 09:45:00,42.8,27.3,30.26,SW,225,2.0,6.0,54,0.00,,,-99.99,WeatherLink 5.7,2013-01-08 14:45:00,
2013-01-08 09:50:00,42.9,27.4,30.26,SSW,202,4.0,11.0,54,0.00,,,-99.99,WeatherLink 5.7,2013-01-08 14:50:00,
2013-01-08 09:55:00,42.8,26.8,30.26,WSW,247,4.0,9.0,53,0.00,,,-99.99,WeatherLink 5.7,2013-01-08 14:55:00,
2013-01-08 10:00:00,42.8,26.8,30.25,WSW,247,2.0,6.0,53,0.00,,,-99.99,WeatherLink 5.7,2013-01-08 15:00:00,
2013-01-08 10:05:00,42.9,26.5,30.25,WSW,247,3.0,7.0,52,0.00,,,-99.99,WeatherLink 5.7,2013-01-08 15:05:00,
2013-01-08 10:10:00,43.3,27.8,30.25,West,270,3.0,7.0,54,0.00,,,-99.99,WeatherLink 5.7,2013-01-08 15:10:00,
2013-01-08 10:15:00,43.8,27.8,30.25,WSW,247,5.0,12.0,53,0.00,,,-99.99,WeatherLink 5.7,2013-01-08 15:15:00,
2013-01-08 10:20:00,43.8,26.8,30.25,WSW,247,5.0,9.0,51,0.00,,,-99.99,WeatherLink 5.7,2013-01-08 15:20:00,
2013-01-08 10:25:00,43.6,27.1,30.25,West,270,4.0,13.0,52,0.00,,,-99.99,WeatherLink 5.7,2013-01-08 15:25:00,
2013-01-08 10:30:00,43.3,27.3,30.25,WSW,247,5.0,13.0,53,0.00,,,-99.99,WeatherLink 5.7,2013-01-08 15:30:00,
2013-01-08 10:35:00,43.6,26.6,30.25,WSW,247,3.0,8.0,51,0.00,,,-99.99,WeatherLink 5.7,2013-01-08 15:35:00,
2013-01-08 10:40:00,43.6,27.1,30.25,WSW,247,2.0,7.0,52,0.00,,,-99.99,WeatherLink 5.7,2013-01-08 15:40:00,
2013-01-08 10:45:00,43.6,27.1,30.24,WSW,247,4.0,12.0,52,0.00,,,-99.99,WeatherLink 5.7,2013-01-08 15:45:00,
2013-01-08 10:50:00,43.3,26.8,30.24,SW,225,3.0,7.0,52,0.00,,,-99.99,WeatherLink 5.7,2013-01-08 15:50:00,
2013-01-08 10:55:00,43.3,27.3,30.24,WSW,247,2.0,8.0,53,0.00,,,-99.99,WeatherLink 5.7,2013-01-08 15:55:00,
2013-01-08 11:00:00,43.8,27.3,30.23,WSW,247,3.0,9.0,52,0.00,,,-99.99,WeatherLink 5.7,2013-01-08 16:00:00,
2013-01-08 11:05:00,43.9,26.9,30.23,West,270,3.0,8.0,51,0.00,,,-99.99,WeatherLink 5.7,2013-01-08 16:05:00,
2013-01-08 11:10:00,44.2,27.2,30.23,West,270,4.0,11.0,51,0.00,,,-99.99,WeatherLink 5.7,2013-01-08 16:10:00,
2013-01-08 11:15:00,44.5,27.5,30.22,West,270,3.0,6.0,51,0.00,,,-99.99,WeatherLink 5.7,2013-01-08 16:15:00,
2013-01-08 11:20:00,44.5,26.5,30.22,WSW,247,3.0,7.0,49,0.00,,,-99.99,WeatherLink 5.7,2013-01-08 16:20:00,
2013-01-08 11:25:00,44.5,27.5,30.22,WSW,247,3.0,7.0,51,0.00,,,-99.99,WeatherLink 5.7,2013-01-08 16:25:00,
2013-01-08 11:30:00,44.9,27.4,30.22,WSW,247,4.0,11.0,50,0.00,,,-99.99,WeatherLink 5.7,2013-01-08 16:30:00,
2013-01-08 11:35:00,44.8,26.8,30.22,SW,225,3.0,8.0,49,0.00,,,-99.99,WeatherLink 5.7,2013-01-08 16:35:00,
2013-01-08 11:40:00,45.2,26.7,30.22,SSW,202,3.0,7.0,48,0.00,,,-99.99,WeatherLink 5.7,2013-01-08 16:40:00,
2013-01-08 11:45:00,45.5,26.4,30.21,SW,225,4.0,11.0,47,0.00,,,-99.99,WeatherLink 5.7,2013-01-08 16:45:00,
2013-01-08 11:50:00,45.7,27.1,30.21,WSW,247,5.0,13.0,48,0.00,,,-99.99,WeatherLink 5.7,2013-01-08 16:50:00,
2013-01-08 11:55:00,45.8,26.7,30.21,SW,225,3.0,8.0,47,0.00,,,-99.99,WeatherLink 5.7,2013-01-08 16:55:00,
2013-01-08 12:00:00,46.4,26.2,30.20,WSW,247,4.0,12.0,45,0.00,,,-99.99,WeatherLink 5.7,2013-01-08 17:00:00,
2013-01-08 12:05:00,46.8,27.1,30.20,WSW,247,3.0,7.0,46,0.00,,,-99.99,WeatherLink 5.7,2013-01-08 17:05:00,
2013-01-08 12:10:00,47.1,26.8,30.20,WSW,247,2.0,6.0,45,0.00,,,-99.99,WeatherLink 5.7,2013-01-08 17:10:00,
2013-01-08 12:15:00,47.0,26.7,30.20,WSW,247,2.0,6.0,45,0.00,,,-99.99,WeatherLink 5.7,2013-01-08 17:15:00,
2013-01-08 12:20:00,47.0,26.7,30.20,WSW,247,1.0,5.0,45,0.00,,,-99.99,WeatherLink 5.7,2013-01-08 17:20:00,
2013-01-08 12:25:00,46.8,27.1,30.20,WSW,247,3.0,7.0,46,0.00,,,-99.99,WeatherLink 5.7,2013-01-08 17:25:00,
2013-01-08 12:30:00,46.4,26.2,30.20,WSW,247,3.0,7.0,45,0.00,,,-99.99,WeatherLink 5.7,2013-01-08 17:30:00,
2013-01-08 12:35:00,46.1,26.4,30.20,SW,225,3.0,7.0,46,0.00,,,-99.99,WeatherLink 5.7,2013-01-08 17:35:00,
2013-01-08 12:40:00,46.0,26.4,30.20,SW,225,3.0,8.0,46,0.00,,,-99.99,WeatherLink 5.7,2013-01-08 17:40:00,
2013-01-08 12:45:00,46.0,26.4,30.20,SSW,202,2.0,5.0,46,0.00,,,-99.99,WeatherLink 5.7,2013-01-08 17:45:00,
2013-01-08 12:50:00,45.8,26.7,30.20,WSW,247,3.0,7.0,47,0.00,,,-99.99,WeatherLink 5.7,2013-01-08 17:50:00,
2013-01-08 12:55:00,45.7,27.1,30.20,West,270,3.0,8.0,48,0.00,,,-99.99,WeatherLink 5.7,2013-01-08 17:55:00,
2013-01-08 13:00:00,45.7,27.1,30.20,WSW,247,2.0,5.0,48,0.00,,,-99.99,WeatherLink 5.7,2013-01-08 18:00:00,
2013-01-08 13:05:00,45.8,26.2,30.20,WSW,247,2.0,6.0,46,0.00,,,-99.99,WeatherLink 5.7,2013-01-08 18:05:00,
2013-01-08 13:10:00,45.7,27.1,30.20,SW,225,1.0,4.0,48,0.00,,,-99.99,WeatherLink 5.7,2013-01-08 18:10:00,
2013-01-08 13:15:00,45.5,26.9,30.19,SW,225,1.0,6.0,48,0.00,,,-99.99,WeatherLink 5.7,2013-01-08 18:15:00,
2013-01-08 13:20:00,45.4,27.3,30.19,SSW,202,2.0,6.0,49,0.00,,,-99.99,WeatherLink 5.7,2013-01-08 18:20:00,
2013-01-08 13:25:00,45.1,26.1,30.19,WSW,247,3.0,8.0,47,0.00,,,-99.99,WeatherLink 5.7,2013-01-08 18:25:00,
2013-01-08 13:30:00,44.6,26.1,30.19,WSW,247,3.0,7.0,48,0.00,,,-99.99,WeatherLink 5.7,2013-01-08 18:30:00,
2013-01-08 13:35:00,44.5,26.5,30.19,WSW,247,2.0,8.0,49,0.00,,,-99.99,WeatherLink 5.7,2013-01-08 18:35:00,
2013-01-08 13:40:00,44.2,26.7,30.19,WSW,247,2.0,5.0,50,0.00,,,-99.99,WeatherLink 5.7,2013-01-08 18:40:00,
2013-01-08 13:45:00,44.2,26.2,30.19,West,270,2.0,6.0,49,0.00,,,-99.99,WeatherLink 5.7,2013-01-08 18:45:00,
2013-01-08 13:50:00,44.5,26.5,30.19,WSW,247,2.0,6.0,49,0.00,,,-99.99,WeatherLink 5.7,2013-01-08 18:50:00,
2013-01-08 13:55:00,44.6,26.1,30.19,WSW,247,2.0,5.0,48,0.00,,,-99.99,WeatherLink 5.7,2013-01-08 18:55:00,
2013-01-08 14:00:00,44.5,26.0,30.20,WSW,247,2.0,6.0,48,0.00,,,-99.99,WeatherLink 5.7,2013-01-08 19:00:00,
2013-01-08 14:05:00,44.3,26.3,30.20,WSW,247,2.0,5.0,49,0.00,,,-99.99,WeatherLink 5.7,2013-01-08 19:05:00,
2013-01-08 14:10:00,44.2,26.2,30.20,WSW,247,3.0,7.0,49,0.00,,,-99.99,WeatherLink 5.7,2013-01-08 19:10:00,
2013-01-08 14:15:00,43.9,26.0,30.20,SW,225,1.0,5.0,49,0.00,,,-99.99,WeatherLink 5.7,2013-01-08 19:15:00,
2013-01-08 14:20:00,43.8,26.3,30.20,WSW,247,1.0,3.0,50,0.00,,,-99.99,WeatherLink 5.7,2013-01-08 19:20:00,
2013-01-08 14:25:00,43.8,26.8,30.20,WSW,247,1.0,3.0,51,0.00,,,-99.99,WeatherLink 5.7,2013-01-08 19:25:00,
2013-01-08 14:30:00,43.8,26.8,30.21,West,270,1.0,6.0,51,0.00,,,-99.99,WeatherLink 5.7,2013-01-08 19:30:00,
2013-01-08 14:35:00,43.8,25.9,30.21,West,270,2.0,6.0,49,0.00,,,-99.99,WeatherLink 5.7,2013-01-08 19:35:00,
2013-01-08 14:40:00,43.6,26.6,30.21,West,270,1.0,3.0,51,0.00,,,-99.99,WeatherLink 5.7,2013-01-08 19:40:00,
2013-01-08 14:45:00,43.5,26.1,30.21,West,270,2.0,5.0,50,0.00,,,-99.99,WeatherLink 5.7,2013-01-08 19:45:00,
2013-01-08 14:50:00,43.3,26.4,30.21,WSW,247,1.0,5.0,51,0.00,,,-99.99,WeatherLink 5.7,2013-01-08 19:50:00,
2013-01-08 14:55:00,43.2,26.3,30.21,SW,225,0.0,4.0,51,0.00,,,-99.99,WeatherLink 5.7,2013-01-08 19:55:00,
2013-01-08 15:00:00,43.2,26.3,30.22,SW,225,0.0,3.0,51,0.00,,,-99.99,WeatherLink 5.7,2013-01-08 20:00:00,
2013-01-08 15:05:00,42.9,26.5,30.22,SSW,202,2.0,6.0,52,0.00,,,-99.99,WeatherLink 5.7,2013-01-08 20:05:00,
2013-01-08 15:10:00,42.8,26.4,30.22,SSW,202,1.0,6.0,52,0.00,,,-99.99,WeatherLink 5.7,2013-01-08 20:10:00,
2013-01-08 15:15:00,42.8,26.4,30.21,SSW,202,2.0,8.0,52,0.00,,,-99.99,WeatherLink 5.7,2013-01-08 20:15:00,
2013-01-08 15:20:00,42.6,26.6,30.21,SSW,202,1.0,2.0,53,0.00,,,-99.99,WeatherLink 5.7,2013-01-08 20:20:00,
2013-01-08 15:25:00,42.5,26.6,30.21,West,270,0.0,3.0,53,0.00,,,-99.99,WeatherLink 5.7,2013-01-08 20:25:00,
2013-01-08 15:30:00,42.3,26.4,30.21,WSW,247,1.0,5.0,53,0.00,,,-99.99,WeatherLink 5.7,2013-01-08 20:30:00,
2013-01-08 15:35:00,42.3,26.4,30.21,SSW,202,1.0,3.0,53,0.00,,,-99.99,WeatherLink 5.7,2013-01-08 20:35:00,
2013-01-08 15:40:00,42.2,26.7,30.21,SSW,202,0.0,1.0,54,0.00,,,-99.99,WeatherLink 5.7,2013-01-08 20:40:00,
2013-01-08 15:45:00,42.1,26.6,30.22,SSW,202,0.0,2.0,54,0.00,,,-99.99,WeatherLink 5.7,2013-01-08 20:45:00,
2013-01-08 15:50:00,41.8,26.4,30.22,SSW,202,1.0,3.0,54,0.00,,,-99.99,WeatherLink 5.7,2013-01-08 20:50:00,
2013-01-08 15:55:00,41.5,26.5,30.22,SSW,202,1.0,3.0,55,0.00,,,-99.99,WeatherLink 5.7,2013-01-08 20:55:00,
2013-01-08 16:00:00,41.3,25.9,30.21,SSW,202,1.0,2.0,54,0.00,,,-99.99,WeatherLink 5.7,2013-01-08 21:00:00,
2013-01-08 16:05:00,41.1,26.1,30.21,WSW,247,1.0,7.0,55,0.00,,,-99.99,WeatherLink 5.7,2013-01-08 21:05:00,
2013-01-08 16:10:00,41.1,26.1,30.21,SW,225,0.0,3.0,55,0.00,,,-99.99,WeatherLink 5.7,2013-01-08 21:10:00,
2013-01-08 16:15:00,40.8,26.3,30.22,SSW,202,0.0,3.0,56,0.00,,,-99.99,WeatherLink 5.7,2013-01-08 21:15:00,
2013-01-08 16:20:00,40.6,26.5,30.22,North,-999,0.0,0.0,57,0.00,,,-99.99,WeatherLink 5.7,2013-01-08 21:20:00,
2013-01-08 16:25:00,40.2,26.2,30.22,North,-999,0.0,0.0,57,0.00,,,-99.99,WeatherLink 5.7,2013-01-08 21:25:00,
2013-01-08 16:30:00,39.9,25.9,30.22,North,-999,0.0,0.0,57,0.00,,,-99.99,WeatherLink 5.7,2013-01-08 21:30:00,
2013-01-08 16:35:00,39.6,26.0,30.22,North,-999,0.0,0.0,58,0.00,,,-99.99,WeatherLink 5.7,2013-01-08 21:35:00,
2013-01-08 16:40:00,39.2,26.1,30.22,North,-999,0.0,0.0,59,0.00,,,-99.99,WeatherLink 5.7,2013-01-08 21:40:00,
2013-01-08 16:45:00,38.8,25.7,30.22,North,-999,0.0,0.0,59,0.00,,,-99.99,WeatherLink 5.7,2013-01-08 21:45:00,
2013-01-08 16:50:00,38.5,25.4,30.22,North,-999,0.0,0.0,59,0.00,,,-99.99,WeatherLink 5.7,2013-01-08 21:50:00,
2013-01-08 16:55:00,38.2,25.5,30.22,North,-999,0.0,0.0,60,0.00,,,-99.99,WeatherLink 5.7,2013-01-08 21:55:00,
2013-01-08 17:00:00,37.8,25.9,30.22,North,-999,0.0,0.0,62,0.00,,,-99.99,WeatherLink 5.7,2013-01-08 22:00:00,
2013-01-08 17:05:00,37.3,25.5,30.22,SSW,202,0.0,2.0,62,0.00,,,-99.99,WeatherLink 5.7,2013-01-08 22:05:00,
2013-01-08 17:10:00,37.2,25.4,30.22,SSW,202,0.0,2.0,62,0.00,,,-99.99,WeatherLink 5.7,2013-01-08 22:10:00,
2013-01-08 17:15:00,37.0,25.2,30.23,North,-999,0.0,0.0,62,0.00,,,-99.99,WeatherLink 5.7,2013-01-08 22:15:00,
2013-01-08 17:20:00,36.9,25.1,30.23,North,-999,0.0,0.0,62,0.00,,,-99.99,WeatherLink 5.7,2013-01-08 22:20:00,
2013-01-08 17:25:00,36.8,25.0,30.23,North,-999,0.0,0.0,62,0.00,,,-99.99,WeatherLink 5.7,2013-01-08 22:25:00,
2013-01-08 17:30:00,36.6,24.8,30.23,North,-999,0.0,0.0,62,0.00,,,-99.99,WeatherLink 5.7,2013-01-08 22:30:00,
2013-01-08 17:35:00,36.5,25.5,30.23,North,-999,0.0,0.0,64,0.00,,,-99.99,WeatherLink 5.7,2013-01-08 22:35:00,
2013-01-08 17:40:00,36.3,25.3,30.23,SSW,202,0.0,1.0,64,0.00,,,-99.99,WeatherLink 5.7,2013-01-08 22:40:00,
2013-01-08 17:45:00,36.0,25.0,30.24,North,-999,0.0,0.0,64,0.00,,,-99.99,WeatherLink 5.7,2013-01-08 22:45:00,
2013-01-08 17:50:00,35.9,25.3,30.24,North,-999,0.0,0.0,65,0.00,,,-99.99,WeatherLink 5.7,2013-01-08 22:50:00,
2013-01-08 17:55:00,35.8,25.2,30.24,North,-999,0.0,0.0,65,0.00,,,-99.99,WeatherLink 5.7,2013-01-08 22:55:00,
2013-01-08 18:00:00,35.5,25.3,30.25,North,-999,0.0,0.0,66,0.00,,,-99.99,WeatherLink 5.7,2013-01-08 23:00:00,
2013-01-08 18:05:00,35.3,25.1,30.25,North,-999,0.0,0.0,66,0.00,,,-99.99,WeatherLink 5.7,2013-01-08 23:05:00,
2013-01-08 18:10:00,35.3,25.1,30.25,North,-999,0.0,0.0,66,0.00,,,-99.99,WeatherLink 5.7,2013-01-08 23:10:00,
2013-01-08 18:15:00,35.2,25.3,30.25,North,-999,0.0,0.0,67,0.00,,,-99.99,WeatherLink 5.7,2013-01-08 23:15:00,
2013-01-08 18:20:00,35.0,25.1,30.25,North,-999,0.0,0.0,67,0.00,,,-99.99,WeatherLink 5.7,2013-01-08 23:20:00,
2013-01-08 18:25:00,34.9,25.4,30.25,North,-999,0.0,0.0,68,0.00,,,-99.99,WeatherLink 5.7,2013-01-08 23:25:00,
2013-01-08 18:30:00,34.7,25.2,30.25,North,-999,0.0,0.0,68,0.00,,,-99.99,WeatherLink 5.7,2013-01-08 23:30:00,
2013-01-08 18:35:00,34.6,25.1,30.25,North,-999,0.0,0.0,68,0.00,,,-99.99,WeatherLink 5.7,2013-01-08 23:35:00,
2013-01-08 18:40:00,34.4,25.3,30.25,North,-999,0.0,0.0,69,0.00,,,-99.99,WeatherLink 5.7,2013-01-08 23:40:00,
2013-01-08 18:45:00,34.4,25.3,30.26,North,-999,0.0,0.0,69,0.00,,,-99.99,WeatherLink 5.7,2013-01-08 23:45:00,
2013-01-08 18:50:00,34.3,25.2,30.26,North,-999,0.0,0.0,69,0.00,,,-99.99,WeatherLink 5.7,2013-01-08 23:50:00,
2013-01-08 18:55:00,34.1,25.3,30.26,North,-999,0.0,0.0,70,0.00,,,-99.99,WeatherLink 5.7,2013-01-08 23:55:00,
2013-01-08 19:00:00,34.0,25.2,30.26,North,-999,0.0,0.0,70,0.00,,,-99.99,WeatherLink 5.7,2013-01-09 00:00:00,
2013-01-08 19:05:00,33.8,25.0,30.26,North,-999,0.0,0.0,70,0.00,,,-99.99,WeatherLink 5.7,2013-01-09 00:05:00,
2013-01-08 19:10:00,33.5,25.1,30.26,North,-999,0.0,0.0,71,0.00,,,-99.99,WeatherLink 5.7,2013-01-09 00:10:00,
2013-01-08 19:15:00,33.4,25.0,30.27,North,-999,0.0,0.0,71,0.00,,,-99.99,WeatherLink 5.7,2013-01-09 00:15:00,
2013-01-08 19:20:00,33.2,25.1,30.27,North,-999,0.0,0.0,72,0.00,,,-99.99,WeatherLink 5.7,2013-01-09 00:20:00,
2013-01-08 19:25:00,33.1,25.1,30.27,North,-999,0.0,0.0,72,0.00,,,-99.99,WeatherLink 5.7,2013-01-09 00:25:00,
2013-01-08 19:30:00,32.9,25.2,30.27,North,-999,0.0,0.0,73,0.00,,,-99.99,WeatherLink 5.7,2013-01-09 00:30:00,
2013-01-08 19:35:00,32.7,25.0,30.27,North,-999,0.0,0.0,73,0.00,,,-99.99,WeatherLink 5.7,2013-01-09 00:35:00,
2013-01-08 19:40:00,32.7,25.0,30.27,North,-999,0.0,0.0,73,0.00,,,-99.99,WeatherLink 5.7,2013-01-09 00:40:00,
2013-01-08 19:45:00,32.5,25.1,30.27,North,-999,0.0,0.0,74,0.00,,,-99.99,WeatherLink 5.7,2013-01-09 00:45:00,
2013-01-08 19:50:00,32.5,25.1,30.27,North,-999,0.0,0.0,74,0.00,,,-99.99,WeatherLink 5.7,2013-01-09 00:50:00,
2013-01-08 19:55:00,32.5,25.1,30.27,North,-999,0.0,0.0,74,0.00,,,-99.99,WeatherLink 5.7,2013-01-09 00:55:00,
2013-01-08 20:00:00,32.4,25.0,30.28,North,-999,0.0,0.0,74,0.00,,,-99.99,WeatherLink 5.7,2013-01-09 01:00:00,
2013-01-08 20:05:00,32.2,25.2,30.28,North,-999,0.0,0.0,75,0.00,,,-99.99,WeatherLink 5.7,2013-01-09 01:05:00,
2013-01-08 20:10:00,32.2,25.2,30.28,North,-999,0.0,0.0,75,0.00,,,-99.99,WeatherLink 5.7,2013-01-09 01:10:00,
2013-01-08 20:15:00,32.2,25.2,30.28,North,-999,0.0,0.0,75,0.00,,,-99.99,WeatherLink 5.7,2013-01-09 01:15:00,
2013-01-08 20:20:00,32.2,25.5,30.28,North,-999,0.0,0.0,76,0.00,,,-99.99,WeatherLink 5.7,2013-01-09 01:20:00,
2013-01-08 20:25:00,31.9,25.2,30.28,North,-999,0.0,0.0,76,0.00,,,-99.99,WeatherLink 5.7,2013-01-09 01:25:00,
2013-01-08 20:30:00,31.9,25.2,30.28,North,-999,0.0,0.0,76,0.00,,,-99.99,WeatherLink 5.7,2013-01-09 01:30:00,
2013-01-08 20:35:00,31.8,25.1,30.28,North,-999,0.0,0.0,76,0.00,,,-99.99,WeatherLink 5.7,2013-01-09 01:35:00,
2013-01-08 20:40:00,31.8,25.1,30.28,North,-999,0.0,0.0,76,0.00,,,-99.99,WeatherLink 5.7,2013-01-09 01:40:00,
2013-01-08 20:45:00,31.6,25.2,30.28,North,-999,0.0,0.0,77,0.00,,,-99.99,WeatherLink 5.7,2013-01-09 01:45:00,
2013-01-08 20:50:00,31.6,25.2,30.28,North,-999,0.0,0.0,77,0.00,,,-99.99,WeatherLink 5.7,2013-01-09 01:50:00,
2013-01-08 20:55:00,31.6,25.2,30.28,North,-999,0.0,0.0,77,0.00,,,-99.99,WeatherLink 5.7,2013-01-09 01:55:00,
2013-01-08 21:00:00,31.6,25.2,30.28,North,-999,0.0,0.0,77,0.00,,,-99.99,WeatherLink 5.7,2013-01-09 02:00:00,
2013-01-08 21:05:00,31.5,25.1,30.28,North,-999,0.0,0.0,77,0.00,,,-99.99,WeatherLink 5.7,2013-01-09 02:05:00,
2013-01-08 21:10:00,31.3,24.9,30.28,North,-999,0.0,0.0,77,0.00,,,-99.99,WeatherLink 5.7,2013-01-09 02:10:00,
2013-01-08 21:15:00,31.3,25.2,30.28,North,-999,0.0,0.0,78,0.00,,,-99.99,WeatherLink 5.7,2013-01-09 02:15:00,
2013-01-08 21:20:00,31.3,25.2,30.28,North,-999,0.0,0.0,78,0.00,,,-99.99,WeatherLink 5.7,2013-01-09 02:20:00,
2013-01-08 21:25:00,31.2,25.1,30.28,North,-999,0.0,0.0,78,0.00,,,-99.99,WeatherLink 5.7,2013-01-09 02:25:00,
2013-01-08 21:30:00,31.0,25.2,30.28,North,-999,0.0,0.0,79,0.00,,,-99.99,WeatherLink 5.7,2013-01-09 02:30:00,
2013-01-08 21:35:00,30.9,25.2,30.28,North,-999,0.0,0.0,79,0.00,,,-99.99,WeatherLink 5.7,2013-01-09 02:35:00,
2013-01-08 21:40:00,30.7,25.0,30.28,North,-999,0.0,0.0,79,0.00,,,-99.99,WeatherLink 5.7,2013-01-09 02:40:00,
2013-01-08 21:45:00,30.7,25.0,30.28,North,-999,0.0,0.0,79,0.00,,,-99.99,WeatherLink 5.7,2013-01-09 02:45:00,
2013-01-08 21:50:00,30.6,24.9,30.28,North,-999,0.0,0.0,79,0.00,,,-99.99,WeatherLink 5.7,2013-01-09 02:50:00,
2013-01-08 21:55:00,30.3,24.9,30.28,North,-999,0.0,0.0,80,0.00,,,-99.99,WeatherLink 5.7,2013-01-09 02:55:00,
2013-01-08 22:00:00,30.1,24.7,30.28,North,-999,0.0,0.0,80,0.00,,,-99.99,WeatherLink 5.7,2013-01-09 03:00:00,
2013-01-08 22:05:00,30.0,24.9,30.28,North,-999,0.0,0.0,81,0.00,,,-99.99,WeatherLink 5.7,2013-01-09 03:05:00,
2013-01-08 22:10:00,30.0,24.9,30.28,North,-999,0.0,0.0,81,0.00,,,-99.99,WeatherLink 5.7,2013-01-09 03:10:00,
2013-01-08 22:15:00,30.0,24.9,30.28,North,-999,0.0,0.0,81,0.00,,,-99.99,WeatherLink 5.7,2013-01-09 03:15:00,
2013-01-08 22:20:00,30.0,24.9,30.28,North,-999,0.0,0.0,81,0.00,,,-99.99,WeatherLink 5.7,2013-01-09 03:20:00,
2013-01-08 22:25:00,30.0,24.9,30.28,North,-999,0.0,0.0,81,0.00,,,-99.99,WeatherLink 5.7,2013-01-09 03:25:00,
2013-01-08 22:30:00,30.0,24.9,30.28,North,-999,0.0,0.0,81,0.00,,,-99.99,WeatherLink 5.7,2013-01-09 03:30:00,
2013-01-08 22:35:00,30.0,24.9,30.28,North,-999,0.0,0.0,81,0.00,,,-99.99,WeatherLink 5.7,2013-01-09 03:35:00,
2013-01-08 22:40:00,30.0,24.9,30.28,North,-999,0.0,0.0,81,0.00,,,-99.99,WeatherLink 5.7,2013-01-09 03:40:00,
2013-01-08 22:45:00,29.8,24.7,30.28,North,-999,0.0,0.0,81,0.00,,,-99.99,WeatherLink 5.7,2013-01-09 03:45:00,
2013-01-08 22:50:00,30.0,24.9,30.28,North,-999,0.0,0.0,81,0.00,,,-99.99,WeatherLink 5.7,2013-01-09 03:50:00,
2013-01-08 22:55:00,29.8,25.0,30.28,North,-999,0.0,0.0,82,0.00,,,-99.99,WeatherLink 5.7,2013-01-09 03:55:00,
2013-01-08 23:00:00,29.7,24.9,30.28,North,-999,0.0,0.0,82,0.00,,,-99.99,WeatherLink 5.7,2013-01-09 04:00:00,
2013-01-08 23:05:00,29.7,24.9,30.28,North,-999,0.0,0.0,82,0.00,,,-99.99,WeatherLink 5.7,2013-01-09 04:05:00,
2013-01-08 23:10:00,29.5,24.7,30.28,SSW,202,1.0,2.0,82,0.00,,,-99.99,WeatherLink 5.7,2013-01-09 04:10:00,
2013-01-08 23:15:00,29.4,24.9,30.28,SSW,202,0.0,2.0,83,0.00,,,-99.99,WeatherLink 5.7,2013-01-09 04:15:00,
2013-01-08 23:20:00,29.4,24.9,30.28,North,-999,0.0,0.0,83,0.00,,,-99.99,WeatherLink 5.7,2013-01-09 04:20:00,
2013-01-08 23:25:00,29.5,24.7,30.28,North,-999,0.0,0.0,82,0.00,,,-99.99,WeatherLink 5.7,2013-01-09 04:25:00,
2013-01-08 23:30:00,29.8,24.7,30.28,North,-999,0.0,0.0,81,0.00,,,-99.99,WeatherLink 5.7,2013-01-09 04:30:00,
2013-01-08 23:35:00,30.0,24.9,30.28,North,-999,0.0,0.0,81,0.00,,,-99.99,WeatherLink 5.7,2013-01-09 04:35:00,
2013-01-08 23:40:00,30.1,25.0,30.28,SSW,202,1.0,2.0,81,0.00,,,-99.99,WeatherLink 5.7,2013-01-09 04:40:00,
2013-01-08 23:45:00,30.1,25.0,30.28,SSW,202,1.0,3.0,81,0.00,,,-99.99,WeatherLink 5.7,2013-01-09 04:45:00,
2013-01-08 23:50:00,30.3,24.9,30.28,SSW,202,1.0,2.0,80,0.00,,,-99.99,WeatherLink 5.7,2013-01-09 04:50:00,
2013-01-08 23:55:00,30.4,24.7,30.28,SSW,202,1.0,2.0,79,0.00,,,-99.99,WeatherLink 5.7,2013-01-09 04:55:00,